EWG4DK EDDL-EDDM

Flight info

Callsign EWG4DK
Flight time N/A
Altitude 31000
Route DODEN7Z DODEN Y853 BOMBI T104 ROKIL ROKIL1B
Aircraft A20N/M-SDE2E3FGHIRWXY/LB1

Departure

Time 2026-05-07 21:03
Airport Düsseldorf Airport (EDDL)

Arrival

Time N/A
Airport Munich Airport (EDDM)
Time Latitude Longitude Altitude Speed Heading
2026-05-07 20:41 51.28154 6.76737 130 ft 0 kts 276°
2026-05-07 20:43 51.28154 6.76738 130 ft 0 kts 276°
2026-05-07 20:51 51.28152 6.76766 126 ft 4 kts 276°
2026-05-07 20:51 51.28149 6.76811 127 ft 4 kts 289°
2026-05-07 20:52 51.28138 6.76831 128 ft 2 kts
2026-05-07 20:52 51.28136 6.76831 128 ft 0 kts 13°
2026-05-07 20:55 51.28142 6.76833 130 ft 3 kts 12°
2026-05-07 20:55 51.28189 6.76844 130 ft 11 kts
2026-05-07 20:55 51.28285 6.76830 125 ft 17 kts 332°
2026-05-07 20:55 51.28392 6.76697 125 ft 21 kts 321°
2026-05-07 20:56 51.28383 6.76550 125 ft 16 kts 232°
2026-05-07 20:56 51.28308 6.76409 125 ft 17 kts 232°
2026-05-07 20:56 51.28264 6.76309 123 ft 0 kts 234°
2026-05-07 20:57 51.28262 6.76306 123 ft 1 kts 234°
2026-05-07 20:57 51.28254 6.76286 124 ft 3 kts 234°
2026-05-07 20:57 51.28237 6.76247 127 ft 5 kts 236°
2026-05-07 20:58 51.28213 6.76190 128 ft 7 kts 234°
2026-05-07 20:58 51.28194 6.76106 127 ft 9 kts 281°
2026-05-07 20:58 51.28201 6.76082 125 ft 0 kts 298°
2026-05-07 21:01 51.28203 6.76076 123 ft 2 kts 301°
2026-05-07 21:01 51.28229 6.76038 127 ft 7 kts 323°
2026-05-07 21:01 51.28285 6.76021 126 ft 9 kts
2026-05-07 21:01 51.28346 6.76048 129 ft 10 kts 26°
2026-05-07 21:02 51.28399 6.76121 129 ft 11 kts 49°
2026-05-07 21:02 51.28476 6.76277 128 ft 41 kts 53°
2026-05-07 21:02 51.28793 6.76945 128 ft 107 kts 52°
2026-05-07 21:02 51.29352 6.78124 168 ft 154 kts 53°
2026-05-07 21:03 51.29996 6.79488 750 ft 152 kts 54°
2026-05-07 21:03 51.30633 6.80851 1367 ft 159 kts 54°
2026-05-07 21:03 51.31303 6.82288 2016 ft 165 kts 53°
2026-05-07 21:03 51.32031 6.83822 2509 ft 182 kts 53°
2026-05-07 21:04 51.32834 6.85509 2966 ft 200 kts 52°
2026-05-07 21:04 51.33725 6.87399 3348 ft 224 kts 53°
2026-05-07 21:04 51.34657 6.89495 3829 ft 245 kts 58°
2026-05-07 21:04 51.35234 6.92190 4438 ft 260 kts 84°
2026-05-07 21:05 51.35077 6.95094 5312 ft 265 kts 99°
2026-05-07 21:05 51.34766 6.98019 6175 ft 269 kts 98°
2026-05-07 21:05 51.34456 7.00996 7014 ft 273 kts 98°
2026-05-07 21:05 51.34149 7.04024 7794 ft 279 kts 98°
2026-05-07 21:06 51.33838 7.07114 8597 ft 284 kts 99°
2026-05-07 21:06 51.33523 7.10257 9406 ft 289 kts 99°
2026-05-07 21:06 51.33202 7.13450 10211 ft 293 kts 99°
2026-05-07 21:06 51.32717 7.16701 10613 ft 312 kts 113°
2026-05-07 21:07 51.31558 7.19749 10833 ft 333 kts 132°
2026-05-07 21:07 51.29898 7.22361 11333 ft 343 kts 137°
2026-05-07 21:07 51.28172 7.25017 12084 ft 346 kts 137°
2026-05-07 21:07 51.26439 7.27720 12822 ft 350 kts 136°
2026-05-07 21:08 51.24696 7.30461 13563 ft 354 kts 136°
2026-05-07 21:08 51.22930 7.33243 14226 ft 358 kts 136°
2026-05-07 21:08 51.21144 7.36059 14882 ft 361 kts 136°
2026-05-07 21:08 51.19346 7.38889 15531 ft 365 kts 137°
2026-05-07 21:09 51.17530 7.41745 16170 ft 368 kts 137°
2026-05-07 21:09 51.15697 7.44624 16788 ft 372 kts 137°
2026-05-07 21:09 51.13857 7.47480 17420 ft 375 kts 137°
2026-05-07 21:09 51.11962 7.50377 18027 ft 379 kts 137°
2026-05-07 21:10 51.10051 7.53286 18600 ft 382 kts 137°
2026-05-07 21:10 51.08120 7.56222 19138 ft 385 kts 137°
2026-05-07 21:10 51.06171 7.59189 19675 ft 388 kts 137°
2026-05-07 21:10 51.04212 7.62171 20201 ft 392 kts 137°
2026-05-07 21:11 51.02234 7.65180 20724 ft 395 kts 137°
2026-05-07 21:11 51.00240 7.68210 21237 ft 398 kts 137°
2026-05-07 21:11 50.96115 7.74095 22259 ft 403 kts 145°
2026-05-07 21:12 50.93765 7.76534 22740 ft 405 kts 150°
2026-05-07 21:12 50.91355 7.78888 23248 ft 408 kts 150°
2026-05-07 21:12 50.88928 7.81268 23724 ft 411 kts 150°
2026-05-07 21:12 50.86492 7.83662 24135 ft 414 kts 150°
2026-05-07 21:13 50.84031 7.86079 24565 ft 416 kts 150°
2026-05-07 21:13 50.81562 7.88503 24972 ft 418 kts 150°
2026-05-07 21:13 50.79083 7.90933 25371 ft 421 kts 150°
2026-05-07 21:13 50.76585 7.93379 25746 ft 424 kts 150°
2026-05-07 21:14 50.74067 7.95842 26143 ft 426 kts 150°
2026-05-07 21:14 50.71540 7.98309 26513 ft 429 kts 150°
2026-05-07 21:14 50.69029 8.00758 26867 ft 431 kts 150°
2026-05-07 21:14 50.66432 8.03286 27233 ft 434 kts 150°
2026-05-07 21:15 50.63899 8.05750 27573 ft 436 kts 150°
2026-05-07 21:15 50.61310 8.08271 27908 ft 439 kts 149°
2026-05-07 21:15 50.58830 8.11103 28246 ft 442 kts 141°
2026-05-07 21:15 50.56454 8.14238 28563 ft 445 kts 141°
2026-05-07 21:16 50.54078 8.17375 28870 ft 447 kts 141°
2026-05-07 21:16 50.51685 8.20523 29176 ft 449 kts 141°
2026-05-07 21:16 50.49283 8.23672 29465 ft 451 kts 141°
2026-05-07 21:16 50.46865 8.26835 29746 ft 453 kts 141°
2026-05-07 21:17 50.44435 8.30007 30048 ft 455 kts 141°
2026-05-07 21:17 50.41994 8.33188 30314 ft 457 kts 141°
2026-05-07 21:17 50.39540 8.36382 30562 ft 459 kts 141°
2026-05-07 21:17 50.37105 8.39547 30802 ft 461 kts 141°
2026-05-07 21:18 50.34626 8.42764 31008 ft 463 kts 141°
2026-05-07 21:18 50.32147 8.45977 31086 ft 463 kts 141°
2026-05-07 21:18 50.27182 8.52399 31101 ft 463 kts 142°
2026-05-07 21:19 50.22213 8.58808 31099 ft 463 kts 142°
2026-05-07 21:19 50.17232 8.65214 31097 ft 463 kts 142°
2026-05-07 21:20 50.12278 8.71568 31100 ft 463 kts 142°
2026-05-07 21:20 50.07295 8.77942 31094 ft 463 kts 142°
2026-05-07 21:21 50.02383 8.84459 31084 ft 464 kts 139°
2026-05-07 21:21 49.97654 8.91279 31076 ft 464 kts 138°
2026-05-07 21:22 49.92897 8.98067 31072 ft 464 kts 139°
2026-05-07 21:22 49.88110 9.04812 31073 ft 465 kts 139°
2026-05-07 21:23 49.83339 9.11502 31073 ft 466 kts 139°
2026-05-07 21:23 49.78527 9.18232 31076 ft 466 kts 139°
2026-05-07 21:24 49.73694 9.24973 31083 ft 467 kts 139°
2026-05-07 21:24 49.68862 9.31695 31083 ft 468 kts 139°
2026-05-07 21:25 49.64006 9.38430 31088 ft 468 kts 139°
2026-05-07 21:25 49.59437 9.45604 31085 ft 470 kts 132°
2026-05-07 21:26 49.55163 9.53150 31085 ft 470 kts 132°
2026-05-07 21:26 49.50848 9.60720 31084 ft 471 kts 132°
2026-05-07 21:27 49.46515 9.68288 31085 ft 471 kts 132°
2026-05-07 21:27 49.42181 9.75835 31084 ft 471 kts 132°
2026-05-07 21:28 49.37833 9.83383 31079 ft 471 kts 133°
2026-05-07 21:28 49.33480 9.90902 31077 ft 471 kts 133°
2026-05-07 21:29 49.29147 9.98362 31080 ft 471 kts 133°
2026-05-07 21:29 49.24755 10.05904 31081 ft 471 kts 133°
2026-05-07 21:30 49.20410 10.13343 31090 ft 471 kts 133°
2026-05-07 21:30 49.16040 10.20813 31097 ft 472 kts 133°
2026-05-07 21:31 49.11615 10.28236 31105 ft 471 kts 135°
2026-05-07 21:31 49.07075 10.35478 31110 ft 472 kts 135°
2026-05-07 21:32 49.02542 10.42710 31116 ft 472 kts 135°
2026-05-07 21:32 48.98010 10.49949 31119 ft 472 kts 135°
2026-05-07 21:33 48.93474 10.57170 31118 ft 472 kts 135°
2026-05-07 21:33 48.88959 10.64347 31113 ft 472 kts 135°
2026-05-07 21:34 48.84409 10.71559 31113 ft 472 kts 135°
2026-05-07 21:34 48.79856 10.78755 31105 ft 473 kts 135°
2026-05-07 21:35 48.75286 10.85928 31107 ft 473 kts 136°
2026-05-07 21:35 48.71484 10.91876 31101 ft 473 kts 136°
2026-05-07 21:36 48.66899 10.99032 31100 ft 473 kts 136°
2026-05-07 21:36 48.62314 11.06157 31101 ft 473 kts 136°
2026-05-07 21:37 48.57611 11.13097 31098 ft 471 kts 143°
2026-05-07 21:37 48.52433 11.19129 31090 ft 472 kts 136°